User: anonymous   Login
Location: Irma
(52.9170°N, 111.2330°W)
Time: 09:29:34
(UTC-07:00)
Language:

Cosmos 1633 Rocket - Orbit

View from above orbital plane
View from above orbital plane
View from above satellite
View from above satellite

Ground track
Ground track

The orbit data is extracted from the following two-line orbital elements,

1 15593U 85020B   14325.83735819  .00000587  00000-0  67896-4 0  8222
2 15593 082.5396 060.5420 0010502 254.9141 244.7778 14.83836440605190
Epoch (UTC): 21 November 2014 20:05:47
Eccentricity: 0.0010502
inclination: 82.5396°
perigee height: 610 km
apogee height: 624 km
right ascension of ascending node: 60.5420°
argument of perigee: 254.9141°
revolutions per day: 14.83836440
mean anomaly at epoch: 244.7778°
orbit number at epoch: 60519

The dashed part of the orbit path shows where the satellite is in the earth's shadow,  

DLR